Theta_e
328 323 323 320 309 307 301 302 306 304 305 309 310 309 308 310 308 306 329 341 343 344 345 345 349 350 349 349 348 347 343 342 341 340 340 340 339 339 339 341 341 342 342 342 339 338 336 335 335
322 320 321 315 305 299 300 304 302 306 310 311 310 310 309 310 319 324 331 342 344 344 345 345 346 349 349 349 348 347 345 341 340 339 339 338 338 337 338 339 338 341 342 340 338 336 335 334 334
321 318 314 309 305 301 300 303 306 308 310 309 309 313 312 311 321 326 337 342 343 344 345 346 346 349 349 348 348 346 344 340 338 337 337 337 337 337 337 337 337 339 340 338 335 334 333 333 333
319 316 313 304 301 303 304 306 307 308 308 309 310 308 315 322 324 330 339 342 342 344 345 344 347 348 348 348 347 345 343 339 337 336 335 334 333 334 336 336 336 335 337 334 331 330 331 331 332
318 314 304 302 302 304 306 307 308 307 307 308 310 307 310 322 327 331 339 342 341 342 344 347 346 347 348 347 347 345 343 339 336 334 333 331 330 330 332 333 333 333 332 329 326 326 327 329 329
309 311 301 299 302 304 306 308 308 308 307 308 308 307 311 324 325 331 335 340 342 341 344 345 340 342 345 346 345 344 342 339 337 334 332 331 330 329 328 329 328 328 328 326 324 323 325 326 327
309 305 301 302 302 302 305 309 307 307 307 306 311 306 314 320 325 334 334 338 341 342 342 344 345 342 337 340 341 342 341 339 338 337 336 335 335 334 332 331 328 326 325 323 322 321 323 325 325
310 307 302 302 300 301 306 308 309 308 306 311 313 306 308 319 326 334 334 336 339 340 341 342 343 342 344 343 335 336 337 337 338 336 333 331 331 331 330 329 330 326 324 323 321 322 323 324 324
309 302 299 300 301 302 307 305 307 309 307 308 312 311 317 323 328 333 333 334 336 337 340 341 340 341 342 343 338 333 332 333 332 330 327 326 329 329 330 327 329 328 326 323 322 322 323 322 321
305 302 302 304 305 303 305 306 306 305 305 306 308 312 315 325 326 329 329 330 332 336 338 341 342 342 342 341 342 341 338 337 335 332 328 332 331 332 328 322 324 324 323 322 320 319 321 320 317
303 300 302 301 303 304 305 304 307 305 304 307 307 310 311 322 324 326 328 329 331 334 337 339 341 342 343 342 342 343 340 336 335 332 332 330 326 326 326 324 323 321 318 318 319 318 318 319 316
299 302 302 302 303 303 302 306 304 305 307 309 311 311 312 317 321 323 326 327 330 332 334 338 340 340 342 343 341 343 341 339 334 333 333 328 326 326 324 325 324 323 322 321 319 317 316 314 313
301 301 302 303 302 303 303 303 304 305 309 310 308 308 310 312 318 323 325 329 329 330 333 335 338 339 341 341 341 341 341 339 336 334 333 328 326 324 324 322 322 319 320 319 316 314 312 310 307
303 302 302 303 303 303 301 302 302 305 308 308 308 307 309 310 313 319 323 325 329 331 332 334 335 338 339 340 340 340 337 338 339 336 332 328 327 325 321 321 314 312 316 314 312 311 308 304 302
302 299 302 302 303 302 303 300 300 306 306 305 306 307 308 309 311 315 321 324 328 331 332 332 333 336 338 339 340 339 334 335 336 336 333 329 327 324 320 315 312 308 312 310 309 306 303 299 297
300 300 296 302 302 302 302 296 304 306 306 305 307 308 308 309 309 313 319 325 328 331 331 332 330 333 336 336 337 333 330 331 331 332 331 330 326 321 315 312 309 308 309 309 308 302 298 296 296
299 293 296 298 302 301 300 298 304 305 305 305 308 309 309 309 310 311 315 323 326 329 331 330 328 329 330 330 326 323 322 319 318 322 326 324 321 318 311 308 305 308 305 305 304 301 297 293 292
294 294 296 296 299 299 299 298 302 305 305 305 306 307 308 309 310 311 312 317 325 328 329 328 327 328 324 319 316 312 310 309 310 310 312 316 315 311 307 304 302 305 306 303 301 297 295 292 290
297 296 294 297 300 297 297 298 300 304 304 304 305 306 307 308 312 313 312 314 320 325 326 326 325 326 320 312 310 309 308 305 305 307 307 305 306 305 302 300 302 302 302 300 298 295 291 289 290
296 294 294 297 300 297 297 297 301 303 303 304 305 306 307 309 310 312 311 311 313 319 323 323 323 323 322 317 315 312 309 305 303 303 304 304 303 302 301 299 301 301 299 297 295 292 290 289 290
294 293 293 294 297 298 296 295 298 302 304 305 306 307 308 308 309 309 307 309 310 313 318 320 321 321 320 319 315 302 299 298 297 297 299 303 302 300 298 299 299 299 299 296 294 292 290 288 291
291 297 296 294 292 289 296 288 296 299 301 304 306 308 309 309 309 309 309 307 308 311 315 317 318 318 317 316 314 307 309 305 302 299 298 298 299 297 296 298 297 298 298 296 294 293 292 291 290
294 297 295 295 293 293 293 289 294 300 298 301 306 308 310 309 308 307 307 307 308 311 313 313 314 315 314 314 311 308 309 312 306 300 295 293 293 294 293 293 294 295 296 296 294 292 293 294 293
298 296 295 295 293 286 292 291 292 296 299 302 306 307 306 305 305 304 304 305 306 309 310 310 310 311 311 310 308 309 310 306 302 296 294 291 291 289 290 290 291 293 293 294 293 292 292 293 294
296 293 286 286 286 285 294 292 295 300 303 304 306 305 304 305 304 303 302 302 304 305 307 307 309 308 308 305 307 307 308 304 301 297 295 291 289 288 287 287 287 290 291 291 291 290 289 292 291
293 293 288 284 284 287 290 287 294 303 305 306 306 307 305 304 304 303 303 303 303 304 305 306 306 307 307 305 305 304 302 300 299 299 299 296 292 290 288 287 287 285 287 286 287 289 288 289 291
293 290 297 290 288 286 290 295 301 302 302 304 304 303 303 305 302 301 301 302 303 303 303 305 305 306 305 306 307 305 303 298 296 296 296 295 293 289 286 285 283 284 283 283 284 284 284 286 287
296 299 289 291 284 283 288 291 293 298 299 303 303 302 304 303 300 300 301 301 302 303 303 304 305 304 304 304 303 301 300 299 297 295 291 290 288 285 283 283 282 282 282 283 283 284 284 284 285
292 292 293 294 291 286 285 290 301 300 303 303 304 304 304 301 301 301 301 301 302 302 302 303 303 303 303 303 302 299 298 296 294 291 290 288 285 284 282 281 280 280 281 282 282 282 283 283 282
296 293 294 289 287 290 289 290 300 300 302 303 302 301 302 302 302 301 300 300 300 301 302 302 302 301 302 302 300 298 296 294 291 289 288 285 283 282 281 280 280 280 280 281 281 280 281 281 280
Wind_Speed
9 6 4 5 6 5 4 5 1 4 4 4 2 2 6 5 8 5 5 6 14 13 16 14 11 12 13 14 12 13 13 14 14 14 15 15 15 15 13 14 16 12 18 19 19 18 19 19 18
5 3 4 4 6 5 7 4 4 4 6 4 3 3 3 6 5 8 10 8 14 12 14 14 11 13 14 13 13 13 13 14 14 14 15 15 15 15 14 16 16 16 18 19 19 18 19 18 18
5 4 5 4 4 3 4 3 7 8 6 3 3 2 3 4 4 11 11 11 13 12 13 14 12 13 13 13 13 14 13 14 14 14 15 15 15 15 15 16 15 16 18 19 17 17 18 19 17
4 4 5 8 2 3 3 5 8 10 4 2 1 3 4 3 8 6 10 12 13 11 12 14 13 14 13 13 14 14 14 14 14 14 15 15 15 15 15 16 16 16 17 18 17 17 17 17 17
4 4 7 6 4 0 2 2 7 7 6 6 5 3 2 7 7 7 11 12 12 12 12 14 11 13 13 13 14 14 14 14 14 14 15 15 15 15 15 15 15 16 16 17 17 17 17 17 17
5 5 6 9 7 2 2 5 7 7 4 5 4 3 3 9 9 9 11 12 13 11 11 13 10 11 12 13 13 14 14 14 14 14 14 15 15 15 15 15 15 15 16 17 17 17 18 17 17
9 8 10 6 5 4 5 6 8 8 7 7 2 4 6 10 9 11 10 11 11 14 9 11 13 12 10 12 12 13 14 13 13 13 13 12 13 14 14 14 15 16 16 16 17 17 18 18 17
6 6 8 7 6 7 6 9 3 6 6 5 2 3 3 11 11 11 12 12 13 9 12 11 11 13 13 12 12 13 13 12 12 12 12 12 12 12 13 12 14 16 16 17 17 18 19 18 16
3 6 9 12 7 7 7 10 4 2 4 5 6 2 5 13 12 12 11 12 13 8 11 12 11 12 12 12 11 11 13 12 11 10 10 13 10 11 10 12 14 16 17 17 17 17 18 18 14
7 9 11 2 3 5 7 10 8 7 11 9 9 7 5 12 12 14 14 14 15 16 14 13 13 13 13 9 13 12 10 9 8 8 10 2 9 9 12 11 13 15 15 16 15 13 10 9 7
3 9 2 1 1 3 4 7 5 9 12 10 11 12 12 13 14 15 15 15 16 15 12 13 12 13 12 9 9 6 6 6 7 9 4 5 7 8 7 7 8 8 10 8 9 6 6 8 7
7 4 3 2 2 2 5 3 6 14 12 4 5 2 16 16 16 16 16 15 15 15 16 14 16 11 13 8 8 9 8 8 7 10 10 5 5 6 7 6 7 6 5 7 7 6 8 10 11
9 3 3 2 3 4 1 7 8 13 12 9 3 4 11 14 16 15 15 15 15 16 16 16 13 12 12 12 9 8 8 8 8 9 11 7 6 6 6 4 6 4 5 6 7 8 8 9 10
2 4 3 4 7 5 6 9 1 9 9 15 12 13 12 14 15 15 15 17 17 16 15 15 15 13 13 12 12 8 6 8 8 8 8 10 7 8 5 6 6 4 6 4 5 7 8 8 8
1 5 7 10 8 4 3 11 15 17 8 9 11 14 15 15 14 16 18 17 17 15 16 16 15 14 11 10 10 8 6 7 7 8 11 10 7 9 7 6 6 4 7 7 7 8 8 7 9
5 3 9 6 7 4 6 12 6 1 7 12 14 14 15 16 16 17 16 16 16 16 17 16 10 13 12 10 7 4 4 4 6 6 7 11 10 8 8 7 7 8 7 7 8 8 7 6 7
8 11 9 5 8 4 12 10 4 1 7 10 10 10 12 14 15 17 16 16 17 17 17 17 16 14 12 9 6 5 5 2 2 3 5 9 10 10 8 7 8 10 6 6 7 8 8 7 7
12 11 10 10 6 7 11 18 14 10 11 15 17 16 16 14 14 15 16 16 16 16 16 16 14 15 12 7 5 4 3 3 2 2 2 7 6 8 8 7 9 9 9 7 6 9 6 7 7
7 7 10 9 6 5 13 17 19 16 16 19 20 19 19 19 15 13 13 14 15 16 18 19 17 16 11 6 4 3 3 3 2 2 4 5 7 7 8 7 10 9 8 9 10 8 11 7 8
11 14 16 14 6 4 13 18 21 20 19 21 21 20 20 18 15 12 13 14 17 18 18 19 18 17 13 9 6 3 4 3 2 3 4 6 7 8 9 9 7 10 8 10 11 12 7 7 8
15 17 14 15 7 14 11 17 21 15 14 18 22 22 20 18 14 10 13 15 15 17 17 16 17 17 14 13 9 6 5 4 3 2 3 4 7 8 8 9 9 7 9 11 13 12 11 8 9
17 14 12 11 6 9 1 11 12 10 13 14 15 14 14 12 9 10 12 14 15 15 13 16 15 14 12 13 11 12 8 6 5 5 4 5 6 7 7 10 9 9 8 11 10 9 7 7 9
3 1 6 8 8 11 15 10 6 14 14 15 16 13 9 5 3 5 6 8 10 10 11 12 14 13 11 11 11 9 10 7 6 6 7 5 5 5 5 7 8 9 6 9 12 11 12 8 7
11 7 4 3 5 10 15 16 13 14 19 15 13 2 6 7 4 3 2 4 7 7 9 10 13 14 12 11 13 12 12 9 9 7 7 5 4 4 6 7 7 7 7 9 8 7 6 5 4
12 7 4 6 7 11 2 11 17 3 5 10 11 5 9 6 6 6 6 6 6 9 9 10 13 14 13 13 12 12 11 12 11 10 8 9 6 5 7 7 7 7 7 7 8 9 6 5 4
16 13 8 8 8 12 4 11 7 9 8 9 11 7 6 6 6 5 5 5 8 10 11 12 13 13 13 13 13 10 8 5 5 7 7 8 7 6 8 7 6 6 7 7 7 7 5 6 5
8 14 11 13 2 5 11 18 17 12 11 12 11 9 11 8 4 5 7 8 8 9 10 11 12 12 12 13 12 12 11 9 8 9 7 7 6 7 10 9 8 8 7 6 6 5 5 4 5
9 6 8 6 6 11 15 16 13 5 14 15 14 13 10 6 7 8 8 8 7 7 9 10 11 13 12 12 10 10 11 10 8 8 7 7 8 9 10 10 9 9 8 7 7 7 6 6 4
10 12 8 6 10 6 15 13 4 6 6 13 10 8 9 10 9 9 8 7 7 7 8 9 10 11 11 11 10 10 9 9 8 7 7 8 8 9 9 9 10 10 10 8 9 7 9 9 7
13 17 20 9 8 8 7 22 6 7 5 4 6 7 8 8 8 7 6 7 8 9 10 10 10 10 10 10 10 10 9 9 9 8 9 9 9 10 10 10 9 9 9 8 10 10 9 10 9
Wind_Direction
269 264 275 252 236 243 127 121 59 137 164 73 65 303 355 4 355 20 157 115 130 145 139 154 139 136 131 125 119 111 110 107 105 99 95 92 90 88 84 74 74 75 83 81 77 71 72 69 68
295 276 235 281 257 234 103 106 174 109 76 119 134 208 244 77 71 111 152 162 147 146 143 148 135 135 139 131 124 115 111 109 105 102 100 97 93 91 89 83 81 76 83 81 75 74 73 72 70
264 267 264 264 286 35 73 132 107 110 118 148 156 288 3 62 103 144 102 161 150 151 155 130 141 141 144 137 125 120 115 112 106 104 101 99 97 93 93 89 85 79 79 81 77 77 76 73 69
240 195 229 255 157 73 7 130 130 145 152 171 328 194 137 46 142 102 140 161 156 153 146 136 144 148 146 137 128 123 119 116 111 108 104 103 101 99 96 93 91 86 83 81 83 81 80 76 72
219 256 242 242 231 50 161 108 163 169 150 160 180 110 94 152 115 143 154 166 166 161 128 151 148 149 143 137 131 129 124 120 115 112 110 107 104 102 100 98 94 93 92 90 87 85 82 78 74
212 269 231 230 199 165 200 172 185 188 149 120 206 233 110 137 164 161 167 175 168 159 132 150 152 148 144 140 136 132 127 126 124 121 117 114 110 106 102 99 97 96 94 93 90 87 84 81 76
261 227 241 261 258 221 208 174 194 197 180 194 46 233 91 170 174 158 177 178 172 151 157 160 166 160 145 144 140 138 135 134 130 125 119 111 106 103 100 99 99 97 96 95 91 88 87 80 75
276 263 236 234 236 247 144 179 230 209 204 85 224 237 166 162 160 163 175 178 181 160 174 167 168 169 165 159 150 145 140 140 136 129 120 106 98 100 99 101 99 101 100 97 95 92 88 84 73
279 247 232 233 235 247 144 196 182 29 217 202 183 290 73 132 159 168 174 181 181 180 188 173 173 175 171 166 162 148 145 139 131 130 133 147 132 127 116 85 100 101 98 96 94 94 94 86 63
236 236 246 356 266 265 184 218 175 210 205 213 211 189 157 156 176 181 187 187 191 187 193 182 180 180 175 162 160 168 158 155 155 155 169 175 139 121 109 90 93 95 98 100 98 104 131 122 99
194 247 21 123 290 291 231 224 211 230 239 223 225 204 182 184 191 198 199 198 198 188 202 188 191 183 178 172 165 173 163 159 160 160 154 84 106 115 131 130 124 124 131 124 131 138 79 83 87
244 241 278 61 144 215 225 297 233 239 243 32 297 3 172 197 200 206 205 204 198 197 193 197 194 190 185 179 178 174 178 169 171 174 167 140 139 148 161 166 147 153 139 122 108 96 93 90 86
235 204 209 152 195 236 302 240 254 263 247 233 184 189 201 207 213 214 215 211 202 204 197 193 209 198 189 185 185 183 183 178 180 176 171 163 161 155 155 144 137 119 131 123 116 114 104 97 94
45 245 239 228 232 223 243 253 188 249 239 237 228 234 224 220 219 215 213 213 209 206 197 194 200 204 201 197 192 162 173 187 185 174 167 171 173 158 161 144 128 138 131 87 109 114 109 99 95
198 261 225 232 226 233 231 249 232 256 204 242 236 234 237 229 223 218 214 214 209 206 204 197 197 202 191 211 204 162 174 193 182 180 171 179 162 167 148 132 138 114 131 112 114 108 109 111 105
234 243 246 124 172 170 212 265 217 63 238 252 255 253 239 228 225 223 222 209 213 207 206 194 195 198 190 195 181 127 140 173 178 182 174 176 165 155 149 149 140 144 137 132 127 121 119 125 119
206 258 211 223 198 163 212 278 110 175 233 257 262 265 253 245 226 224 221 213 212 206 200 195 191 194 188 187 166 151 151 130 107 128 160 161 160 161 146 143 142 144 132 142 148 133 133 134 121
237 220 242 258 153 225 225 257 272 247 248 266 270 270 262 246 237 222 217 214 207 204 203 201 192 190 167 156 136 112 106 99 113 118 111 134 151 149 141 134 143 143 144 156 145 127 106 126 126
292 277 275 270 131 261 255 269 274 272 267 265 265 262 261 255 235 215 201 207 205 203 203 202 195 191 166 156 150 153 167 150 125 141 151 131 133 143 140 139 154 152 157 154 141 128 133 132 136
241 259 260 269 303 239 274 271 274 268 256 256 259 257 257 258 250 210 182 200 205 207 205 202 199 195 185 178 168 148 143 144 125 132 168 160 153 148 143 150 184 164 151 150 144 144 140 139 183
240 250 260 267 307 254 280 270 251 255 254 253 255 257 259 260 262 181 198 212 212 213 206 205 203 197 192 188 154 108 86 94 134 173 152 166 164 164 146 153 151 187 166 163 159 162 164 165 196
257 252 249 262 264 273 279 288 284 267 257 243 244 244 255 248 239 242 213 214 218 211 205 202 205 200 194 191 183 190 193 180 186 160 154 156 176 169 163 168 164 170 168 167 164 159 166 161 182
262 62 213 228 242 289 253 264 270 242 240 251 254 251 242 227 247 216 212 221 221 205 200 200 204 196 190 195 194 198 213 206 159 145 134 156 155 167 160 159 165 166 176 165 165 173 179 189 170
133 116 118 208 257 257 257 245 273 248 233 245 251 157 163 166 167 142 108 187 191 183 196 198 203 194 190 194 204 206 201 176 167 149 155 160 154 155 162 162 166 172 169 171 169 175 194 165 172
199 183 226 228 198 252 348 257 249 278 317 273 267 161 183 170 167 156 170 167 178 182 186 200 202 201 186 202 202 203 202 186 183 166 170 161 169 181 176 164 163 173 170 159 163 180 177 160 178
198 199 212 234 243 269 104 237 257 236 277 235 246 225 177 195 188 188 161 175 183 185 192 197 198 202 191 197 199 195 184 180 176 176 178 184 186 176 156 160 152 130 141 154 162 171 169 168 165
177 218 253 275 25 276 254 258 263 208 230 233 240 228 225 227 191 183 172 177 181 186 193 198 198 200 196 201 197 195 187 182 178 177 174 170 158 155 154 149 140 140 139 133 124 118 122 128 138
245 193 195 219 229 245 253 255 258 209 227 243 228 223 229 182 182 187 170 173 175 188 194 197 196 201 198 199 197 195 190 191 182 174 167 164 157 147 145 147 143 134 126 131 128 128 128 122 114
186 213 218 241 225 251 271 257 315 357 312 238 236 213 191 184 183 179 157 167 181 184 195 198 199 201 201 200 197 196 189 183 171 164 161 170 154 156 154 150 147 144 141 139 124 135 131 128 123
249 216 210 211 204 224 272 270 89 38 348 282 181 164 167 170 159 153 158 171 183 191 192 195 201 206 208 200 197 196 182 177 173 177 165 159 159 156 151 146 142 143 141 135 137 140 135 136 142